Regional Weather Roundup
Issued by NWS

Home | Current Version | Previous Version | Graphics & Text | Print | Product List | Glossary On
Versions: 1 2 3 4 5 6 7 8 9 10 11 12 13 14 15 16 17 18 19 20 21 22 23 24 25 26 27 28 29 30 31 32 33 34 35 36 37 38 39 40 41 42 43 44 45 46 47 48 49 50
764
ASUS43 KTOP 281559
RWRKS

WEATHER ROUNDUP FOR KANSAS
NATIONAL WEATHER SERVICE GOODLAND KS
1100 AM CDT TUE MAR 28 2017

NOTE:  "FAIR" INDICATES FEW OR NO CLOUDS BELOW 12,000 FEET WITH NO
SIGNIFICANT WEATHER AND/OR OBSTRUCTIONS TO VISIBILITY.

KSZ001>006-013>018-027>032-041>047-281700-
NORTHWEST KANSAS

CITY           SKY/WX    TMP DP  RH WIND       PRES   REMARKS
GOODLAND       LGT RAIN  46  45  96 SE20G26   29.89F FOG
HAYS             N/A     50  45  83 E15       29.99F
HILL CITY      CLOUDY    47  47 100 E10       30.00S FOG
RUSSELL        CLOUDY    52  46  80 E15       29.99F
$$

KSZ061>065-074>080-084>089-281700-
SOUTHWEST KANSAS

CITY           SKY/WX    TMP DP  RH WIND       PRES   REMARKS
DODGE CITY     CLOUDY    47  45  93 E15       29.92F FOG
ELKHART          N/A     45  39  79 E6          N/A
GARDEN CITY    CLOUDY    46  45  96 E20G26    29.86F FOG
GREAT BEND     CLOUDY    51  44  77 E17       29.97F
LIBERAL        CLOUDY    46  43  87 E22       29.85F
$$

KSZ066>073-081>083-090>101-281700-
SOUTHEAST KANSAS

CITY           SKY/WX    TMP DP  RH WIND       PRES   REMARKS
CHANUTE        CLOUDY    53  46  77 VRB7      30.05S
COFFEYVILLE    CLOUDY    53  48  83 E8        30.05S
MEDICINE LODGE   N/A     50  45  83 E15       29.94F
NEWTON         CLOUDY    51  46  83 E9        30.04S
PARSONS        CLOUDY    53  47  79 E7        30.06S
WICHITA INTL   CLOUDY    53  46  77 E13       30.00F
WICHITA JABRA  CLOUDY    51  45  79 E14       30.01F
WICHITA MCCONL CLOUDY    52  45  76 E13       30.01F
WINFIELD       CLOUDY    52  47  83 E12       30.02S
$$

KSZ007>012-019>026-033>040-048>060-102>105-281700-
NORTHEAST KANSAS

CITY           SKY/WX    TMP DP  RH WIND       PRES   REMARKS
CONCORDIA      CLOUDY    49  45  86 E7        30.06S
EMPORIA        CLOUDY    51  46  83 NE12      30.05F
LAWRENCE       CLOUDY    51  49  92 NE7       30.10R FOG
MANHATTAN      CLOUDY    52  45  77 E7        30.07F
OLATHE IND     CLOUDY    50  48  93 NE6       30.09S FOG
OLATHE EXE     CLOUDY    49  49 100 E7        30.09R FOG
SALINA         PTSUNNY   55  45  68 E12       30.05S
TOPEKA BILLARD CLOUDY    51  47  86 E7        30.09R
TOPEKA FORBES  CLOUDY    53  47  79 E6        30.08S
$$




USA.gov is the U.S. government's official web portal to all federal, state and local government web resources and services.